Location: ??
(35.5653°N, 139.6194°E)
Time: 03:44:25
(UTC+00:00)

Delta 2 Rocket - Pass Details

Date: 29 February 2020
Orbit: 416 x 808 km, 35.6° (Epoch: 04 April)

Event Time Altitude Azimuth Distance (km) Brightness Sun altitude
Exits shadow 19:29:21 37° 179° (S) 787 4.0 -21.6°
Maximum altitude 19:29:49 39° 160° (SSE) 755 4.0 -21.5°
Drops below altitude 10° 19:33:15 10° 90° (E) 1,611 6.9 -20.8°
Sets 19:35:23 0° 83° (E) 2,440 8.2 -20.3°
